Location: Unspecified
(34.4950°S, 58.5160°W)
Time: 20:05:51
(UTC+00:00)

Cosmos 1666 - Pass Details

Date: 04 December 2021
Orbit: 494 x 515 km, 82.5° (Epoch: 28 January)

Event Time Altitude Azimuth Distance (km) Brightness Sun altitude
Rises 23:17:20 0° 337° (NNW) 2,581 6.2 -4.9°
Reaches altitude 10° 23:19:32 10° 328° (NNW) 1,710 5.4 -5.2°
Maximum altitude 23:23:01 36° 260° (W) 823 4.5 -5.9°
Drops below altitude 10° 23:26:34 10° 192° (SSW) 1,747 6.1 -6.5°
Sets 23:28:51 0° 183° (S) 2,646 6.9 -6.9°
